Location: General Nathan Twining Observatory
(34.5931°N, 106.8201°W)
Time: 06:43:51
(UTC-06:00)

Meteor 1-22 Rocket - Pass Details

Date: 20 September 2017
Orbit: 786 x 942 km, 81.2° (Epoch: 20 October)

Event Time Altitude Azimuth Distance (km) Brightness Sun altitude
Rises 20:45:54 0° 190° (S) 3,521 7.4 -21.0°
Reaches altitude 10° 20:48:24 10° 192° (SSW) 2,563 6.6 -21.5°
Maximum altitude 20:54:14 78° 278° (W) 894 4.3 -22.7°
Drops below altitude 10° 20:59:52 10° 5° (N) 2,472 6.8 -23.8°
Sets 21:02:14 0° 7° (N) 3,387 7.5 -24.2°
